Asau, Samoa

9:56 AM WSDT on January 27, 2015 (GMT +1400)
Faleolo International | Change Station
CLOSE
Current Station
Airport
Location: Faleolo,
Elevation: 16 ft
Nearby Weather Stations

Elev 16 ft 13.83 °S, 172.01 °W | Updated 1 hour ago

Scattered Clouds
Scattered Clouds
81 °F
Feels Like 87 °F
N
5
Wind Variable Wind from ESE

Today
High -- | Low -- °F
--% Chance of Precip.
Yesterday
High -- | Low -- °F
Precip. -- in
7:21 AM 8:05 PM
Waxing Crescent, 46% visible
Pressure 29.62 in
Visibility 6.2 miles
Clouds Few 2500 ft
Scattered Clouds 29000 ft
Heat Index 87 °F
Dew Point 77 °F
Humidity 89%
Rainfall 0.00 in
Snow Depth Not available.
UV 0 out of 12
Pollen Not available.
Air Quality Not available.
Flu Activity Not available.
METAR NSFA 261800Z 12004KT 9999 FEW025 SCT290 27/25 Q1003

More Conditions Fewer Conditions

Pressure 29.62 in
Visibility 6.2 miles
Clouds Few 2500 ft
Scattered Clouds 29000 ft
Heat Index 87 °F
Dew Point 77 °F
Humidity 89%
Rainfall 0.00 in
Snow Depth Not available.
UV 0 out of 12
Pollen Not available.
Air Quality Not available.
Flu Activity Not available.
METAR NSFA 261800Z 12004KT 9999 FEW025 SCT290 27/25 Q1003

More Conditions Fewer Conditions

10-Day Weather Forecast

Almanac

Astronomy

Jan. 27, 2015 Rise Set
Actual Time
Civil Twilight
Nautical Twilight
Astronomical Twilight
Moon
Length of Visible Light
Length of Day
Tomorrow will be .
, % of the Moon is Illuminated

Today's Extremes

Country Highs Country Lows

Community

WunderPhotos

Upload Photos

1,790,338 photos uploaded!

WunderBlogs® & News

Nearby

Air Quality

  Air Quality AQ Index Pollutant
Not available.

Snow Depth

Station Depth Elevation

Earthquake Activity

City Distance Mag. Time & Date
Minimum magnitude displayed is 2.5.

Coastal Water Temperatures

Place Temperature

Nearby Weather Stations